Simultaneous Nadir Overpasses (SNOs) Predictions

Prediction of SNOs between GOES-16 and NOAA-19 Satellite Orbit:

Table of predicted SNOs for the next 14.0 days since TLE Epoch: 2/7/2020
Index Date Time (GOES-16) GOES-16 Lat,Lon NOAA-19 Lat,Lon Distance(km) Time Diff (sec)
1 02/09/2020 22:40:37 -0.05, -75.20 -0.44, -76.96 199.91 80
2 02/10/2020 22:31:36 -0.06, -75.21 0.18, -74.10 126.15 80
3 02/11/2020 22:19:57 -0.06, -75.22 0.85, -71.25 452.31 80
4 02/13/2020 10:49:50 0.05, -75.25 0.96, -79.04 433.80 80
5 02/14/2020 10:38:10 0.06, -75.26 0.29, -76.19 107.38 80
6 02/15/2020 10:29:11 0.06, -75.27 -0.38, -73.35 219.20 80
7 02/17/2020 22:47:43 -0.05, -75.29 -0.78, -78.36 351.08 80
8 02/18/2020 22:36:03 -0.06, -75.30 -0.10, -75.52 24.01 80
9 02/19/2020 22:27:03 -0.06, -75.32 0.53, -72.66 303.31 80




NCC Satellite Simultaneous Nadir Overpasses (SNOs) Prediction Service
